SCP
0 0 0 0 0 0 0 0 0 0 0 0 0 0 0 0 0 0 0 0 0 0
0 0 0 0 0 0 0 0 0 0 0 0 0 0 0 0 0 0 0 0 0 0
0 0 0 0 0 0 0 0 0 0 0 0 0 0 0 0 0 0 0 0 0 0
0 0 0 0 0 0 0 0 0 0 0 0 0 0 0 0 0 0 0 0 0 0
0 0 0 0 0 0 0 0 0 0 0 0 0 0 0 0 0 0 0 0 0 0
0 0 0 0 0 0 0 0 0 0 0 0 0 0 0 0 0 0 0 0 0 0
0 0 0 0 0 0 0 0 0 0 0 0 0 0 0 0 0 0 0 0 0 0
0 0 0 0 0 0 0 0 0 0 0 0 0 0 0 0 0 0 0 0 0 0
0 0 0 0 0 0 0 0 0 0 0 0 0 0 0 0 0 0 0 0 0 0
0 0 0 0 0 0 0 0 0 0 0 0 0 0 0 0 0 0 0 0 0 0
0 0 0 0 0 0 0 0 0 0 0 0 0 0 0 0 0 0 0 0 -0 0
0 0 0 0 0 0 0 0 0 0 0 0 0 0 0 0 0 0 0 0 0 0
0 0 0 0 0 0 0 0 0 0 0 0 0 0 0 0 0 0 0 0 -0 0
0 0 0 0 0 0 0 0 0 0 0 0 0 0 0 0 0 0 0 0 -0 0
Wind_Speed_500mb
57 59 62 64 64 66 67 65 60 61 62 63 64 64 63 62 56 49 57 59 58 64
57 60 62 62 63 65 61 56 56 58 62 64 64 63 60 59 59 50 45 51 51 54
61 62 61 63 63 61 54 52 55 58 62 64 63 61 57 57 50 38 42 49 58 60
61 60 61 62 62 57 51 51 54 58 62 62 62 61 59 55 41 40 53 62 59 66
60 60 61 62 60 56 51 50 53 56 60 61 61 60 56 49 36 50 63 58 67 75
61 63 65 64 61 56 51 52 52 54 58 61 61 60 53 44 48 60 60 66 75 79
62 64 66 67 63 57 51 53 54 55 57 59 60 59 46 50 57 65 60 70 71 74
63 64 65 65 62 57 53 53 55 58 56 57 57 51 51 54 61 61 64 65 65 68
61 64 63 62 58 54 54 56 57 58 59 58 53 52 50 53 56 57 61 60 59 60
61 63 62 60 56 53 55 57 57 60 59 57 56 49 51 51 53 57 54 59 61 65
62 63 63 60 57 53 53 54 57 57 56 57 52 49 49 49 51 55 53 58 59 65
65 65 63 61 59 56 55 55 53 52 53 53 53 49 46 48 54 52 61 52 54 60
64 63 63 61 62 60 54 51 50 49 49 51 59 56 46 49 51 56 48 55 58 60
61 61 61 61 59 57 53 51 50 54 55 61 60 58 45 45 52 47 58 57 53 75
Wind_Direction_500mb
324 327 329 330 330 330 329 330 333 333 332 334 334 331 327 323 320 313 304 306 310 303
328 332 333 332 330 330 329 331 332 333 334 335 334 332 330 326 320 322 325 322 319 314
335 333 332 330 329 329 328 331 332 333 333 333 333 333 329 327 331 330 331 323 321 319
333 332 330 328 329 328 327 329 330 331 330 332 332 333 327 328 329 325 332 326 317 318
331 330 329 329 330 328 324 325 327 328 328 331 333 331 328 328 335 332 325 327 325 321
331 331 330 330 329 325 320 321 324 326 327 331 331 328 326 334 330 330 328 328 320 318
330 330 329 328 327 324 320 321 322 324 327 329 328 325 327 325 329 328 320 327 326 326
329 328 328 327 327 323 320 321 323 324 327 329 327 323 325 320 322 315 321 325 327 331
328 330 330 328 327 325 322 323 325 328 331 332 332 322 319 318 316 317 320 317 325 329
332 332 332 331 330 328 325 326 328 333 333 336 340 325 321 320 317 318 322 325 325 326
335 335 335 334 333 331 329 331 335 334 339 340 344 326 326 325 322 324 328 326 325 329
339 338 336 337 336 337 338 339 337 342 343 345 348 337 331 330 328 330 327 327 331 329
342 340 340 339 340 344 341 340 344 346 350 353 353 349 336 334 332 330 327 336 332 330
347 345 343 344 344 344 346 348 351 352 357 357 353 348 339 338 335 329 330 332 328 328
Wind_Speed_850mb
57 59 62 64 64 66 67 65 60 61 62 63 64 64 63 62 56 49 57 59 58 64
57 60 62 62 63 65 61 56 56 58 62 64 64 63 60 59 59 50 45 51 51 54
61 62 61 63 63 61 54 52 55 58 62 64 63 61 57 57 50 38 42 49 58 60
61 60 61 62 62 57 51 51 54 58 62 62 62 61 59 55 41 40 53 62 59 66
60 60 61 62 60 56 51 50 53 56 60 61 61 60 56 49 36 50 63 58 67 75
61 63 65 64 61 56 51 52 52 54 58 61 61 60 53 44 48 60 60 66 75 79
62 64 66 67 63 57 51 53 54 55 57 59 60 59 46 50 57 65 60 70 71 74
63 64 65 65 62 57 53 53 55 58 56 57 57 51 51 54 61 61 64 65 65 68
61 64 63 62 58 54 54 56 57 58 59 58 53 52 50 53 56 57 61 60 59 60
61 63 62 60 56 53 55 57 57 60 59 57 56 49 51 51 53 57 54 59 61 65
62 63 63 60 57 53 53 54 57 57 56 57 52 49 49 49 51 55 53 58 59 65
65 65 63 61 59 56 55 55 53 52 53 53 53 49 46 48 54 52 61 52 54 60
64 63 63 61 62 60 54 51 50 49 49 51 59 56 46 49 51 56 48 55 58 60
61 61 61 61 59 57 53 51 50 54 55 61 60 58 45 45 52 47 58 57 53 75
Wind_Direction_850mb
324 327 329 330 330 330 329 330 333 333 332 334 334 331 327 323 320 313 304 306 310 303
328 332 333 332 330 330 329 331 332 333 334 335 334 332 330 326 320 322 325 322 319 314
335 333 332 330 329 329 328 331 332 333 333 333 333 333 329 327 331 330 331 323 321 319
333 332 330 328 329 328 327 329 330 331 330 332 332 333 327 328 329 325 332 326 317 318
331 330 329 329 330 328 324 325 327 328 328 331 333 331 328 328 335 332 325 327 325 321
331 331 330 330 329 325 320 321 324 326 327 331 331 328 326 334 330 330 328 328 320 318
330 330 329 328 327 324 320 321 322 324 327 329 328 325 327 325 329 328 320 327 326 326
329 328 328 327 327 323 320 321 323 324 327 329 327 323 325 320 322 315 321 325 327 331
328 330 330 328 327 325 322 323 325 328 331 332 332 322 319 318 316 317 320 317 325 329
332 332 332 331 330 328 325 326 328 333 333 336 340 325 321 320 317 318 322 325 325 326
335 335 335 334 333 331 329 331 335 334 339 340 344 326 326 325 322 324 328 326 325 329
339 338 336 337 336 337 338 339 337 342 343 345 348 337 331 330 328 330 327 327 331 329
342 340 340 339 340 344 341 340 344 346 350 353 353 349 336 334 332 330 327 336 332 330
347 345 343 344 344 344 346 348 351 352 357 357 353 348 339 338 335 329 330 332 328 328